Location: Melita
(38.4566°N, 122.6369°W)
Time: 10:34:46
(UTC+00:00)

USA 238 - Pass Details

Date: 24 January 2020
Orbit: 1023 x 1189 km, 63.4° (Epoch: 10 February)

Event Time Altitude Azimuth Distance (km) Brightness Sun altitude
Exits shadow 12:44:40 49° 349° (NNW) 1,453 4.2 -30.7°
Maximum altitude 12:46:45 72° 55° (NE) 1,218 4.0 -30.3°
Drops below altitude 10° 12:54:11 10° 139° (SE) 3,096 6.6 -28.9°
Sets 12:56:57 0° 142° (SE) 4,064 7.3 -28.3°
